Location: Lincoln
(40.8000°N, 96.6670°W)
Time: 01:33:36
(UTC-05:00)

BlueWalker 3 - Pass Details

Date: 03 February 2023
Orbit: 497 x 515 km, 53.2° (Epoch: 27 March)

Event Time Altitude Azimuth Distance (km) Brightness Sun altitude
Rises 18:49:44 0° 301° (WNW) 2,600 6.4 -12.3°
Reaches altitude 10° 18:52:57 10° 330° (NNW) 1,721 4.9 -12.9°
Maximum altitude 18:54:51 13° 359° (N) 1,536 4.3 -13.3°
Enters shadow 18:56:42 10° 28° (NNE) 1,716 4.3 -13.6°
